TimeCST,TemperatureF,Dew PointF,Humidity,Sea Level PressureIn,VisibilityMPH,Wind Direction,Wind SpeedMPH,Gust SpeedMPH,PrecipitationIn,Events,Conditions,WindDirDegrees,DateUTC
12:15 AM,19.8,16.7,88,30.02,3.0,North,16.1,24.2,N/A,Snow,Light Snow,360,2014-01-05 06:15:00
12:35 AM,19.9,16.7,87,30.02,1.8,North,16.1,23.0,N/A,Snow,Light Snow,10,2014-01-05 06:35:00
12:55 AM,19.9,16.7,87,30.02,2.0,North,15.0,26.5,N/A,Snow,Light Snow,10,2014-01-05 06:55:00
1:15 AM,19.9,17.1,89,30.02,2.5,North,16.1,20.7,N/A,Snow,Light Snow,360,2014-01-05 07:15:00
1:35 AM,19.9,16.9,88,30.03,3.0,North,13.8,21.9,N/A,Snow,Light Snow,350,2014-01-05 07:35:00
1:55 AM,19.9,17.2,89,30.03,3.0,North,15.0,-,N/A,Snow,Light Snow,350,2014-01-05 07:55:00
2:15 AM,19.4,16.0,87,30.05,2.5,North,21.9,27.6,N/A,Snow,Light Snow,360,2014-01-05 08:15:00
2:35 AM,18.9,15.3,86,30.05,4.0,North,23.0,33.4,N/A,Snow,Light Snow,350,2014-01-05 08:35:00
2:55 AM,16.9,13.5,86,30.06,5.0,North,21.9,28.8,N/A,,Mostly Cloudy,360,2014-01-05 08:55:00
3:15 AM,16.7,13.1,86,30.07,10.0,North,19.6,26.5,N/A,,Mostly Cloudy,350,2014-01-05 09:15:00
3:35 AM,17.1,13.5,86,30.07,10.0,North,17.3,24.2,N/A,,Overcast,350,2014-01-05 09:35:00
3:55 AM,15.8,12.7,88,30.08,10.0,North,16.1,-,N/A,,Mostly Cloudy,350,2014-01-05 09:55:00
4:15 AM,16.2,13.1,88,30.09,10.0,NNW,13.8,-,N/A,,Mostly Cloudy,340,2014-01-05 10:15:00
4:35 AM,16.3,13.1,87,30.08,10.0,NNW,15.0,-,N/A,,Overcast,340,2014-01-05 10:35:00
4:55 AM,14.0,11.1,88,30.08,10.0,NNW,12.7,-,N/A,,Scattered Clouds,340,2014-01-05 10:55:00
5:15 AM,13.1,10.2,88,30.09,10.0,NNW,11.5,-,N/A,,Clear,330,2014-01-05 11:15:00
5:35 AM,11.3,8.4,88,30.10,5.0,NNW,9.2,-,N/A,,Clear,330,2014-01-05 11:35:00
5:55 AM,10.2,7.3,88,30.11,5.0,NW,9.2,-,N/A,Snow,Light Snow,310,2014-01-05 11:55:00
6:15 AM,8.8,5.7,87,30.11,10.0,NW,9.2,-,N/A,,Clear,310,2014-01-05 12:15:00
6:35 AM,11.7,8.8,88,30.11,10.0,NW,12.7,-,N/A,,Clear,320,2014-01-05 12:35:00
6:55 AM,11.3,8.1,87,30.11,10.0,NNW,12.7,-,N/A,,Clear,330,2014-01-05 12:55:00
7:15 AM,11.5,8.1,86,30.13,10.0,NNW,13.8,-,N/A,,Clear,340,2014-01-05 13:15:00
7:35 AM,10.9,7.0,84,30.14,10.0,NNW,12.7,-,N/A,,Clear,330,2014-01-05 13:35:00
7:55 AM,10.0,5.9,83,30.17,10.0,NNW,11.5,-,N/A,,Clear,330,2014-01-05 13:55:00
8:15 AM,9.1,5.0,83,30.18,10.0,NW,11.5,-,N/A,,Clear,320,2014-01-05 14:15:00
8:35 AM,9.1,4.6,82,30.19,10.0,NNW,11.5,-,N/A,,Clear,330,2014-01-05 14:35:00
8:55 AM,10.0,4.8,79,30.20,10.0,NNW,12.7,-,N/A,,Clear,330,2014-01-05 14:55:00
9:15 AM,11.1,5.0,76,30.20,10.0,North,13.8,17.3,N/A,,Clear,360,2014-01-05 15:15:00
9:35 AM,12.0,4.8,73,30.21,10.0,North,16.1,20.7,N/A,,Clear,360,2014-01-05 15:35:00
9:55 AM,12.6,4.8,71,30.23,10.0,North,13.8,-,N/A,,Clear,350,2014-01-05 15:55:00
10:15 AM,13.6,4.8,68,30.24,10.0,North,15.0,-,N/A,,Clear,350,2014-01-05 16:15:00
10:35 AM,14.0,2.8,61,30.25,10.0,North,15.0,24.2,N/A,,Clear,10,2014-01-05 16:35:00
10:55 AM,14.9,2.8,59,30.27,10.0,North,16.1,-,N/A,,Clear,360,2014-01-05 16:55:00
11:15 AM,15.3,2.7,58,30.26,10.0,North,18.4,23.0,N/A,,Clear,350,2014-01-05 17:15:00
11:35 AM,15.8,2.5,56,30.27,10.0,North,15.0,-,N/A,,Clear,350,2014-01-05 17:35:00
11:55 AM,15.8,0.9,52,30.25,10.0,North,16.1,-,N/A,,Clear,350,2014-01-05 17:55:00
12:15 PM,16.5,-0.9,46,30.25,10.0,North,15.0,19.6,N/A,,Clear,360,2014-01-05 18:15:00
12:35 PM,16.9,-1.8,44,30.24,10.0,North,17.3,21.9,N/A,,Clear,360,2014-01-05 18:35:00
12:55 PM,17.6,-0.9,44,30.24,10.0,North,17.3,20.7,N/A,,Clear,360,2014-01-05 18:55:00
1:15 PM,18.1,-0.2,45,30.23,10.0,North,16.1,-,N/A,,Clear,360,2014-01-05 19:15:00
1:35 PM,18.5,1.2,47,30.23,10.0,North,17.3,20.7,N/A,,Clear,360,2014-01-05 19:35:00
1:55 PM,18.7,2.3,49,30.24,10.0,North,15.0,21.9,N/A,,Clear,350,2014-01-05 19:55:00
2:15 PM,18.9,3.2,51,30.24,10.0,North,12.7,19.6,N/A,,Clear,360,2014-01-05 20:15:00
2:35 PM,18.9,4.6,54,30.25,10.0,North,12.7,-,N/A,,Clear,10,2014-01-05 20:35:00
2:55 PM,19.2,5.0,54,30.25,10.0,North,13.8,-,N/A,,Clear,360,2014-01-05 20:55:00
3:15 PM,18.5,4.3,54,30.25,10.0,North,13.8,-,N/A,,Clear,10,2014-01-05 21:15:00
3:35 PM,18.5,4.1,54,30.27,10.0,NNE,10.4,-,N/A,,Clear,20,2014-01-05 21:35:00
3:55 PM,18.5,4.3,54,30.28,10.0,North,11.5,17.3,N/A,,Clear,360,2014-01-05 21:55:00
4:15 PM,18.3,4.1,54,30.30,10.0,North,12.7,18.4,N/A,,Clear,360,2014-01-05 22:15:00
4:35 PM,17.8,3.7,54,30.30,10.0,North,13.8,19.6,N/A,,Clear,360,2014-01-05 22:35:00
4:55 PM,17.1,4.1,57,30.32,10.0,North,13.8,17.3,N/A,,Clear,360,2014-01-05 22:55:00
5:15 PM,15.8,4.3,60,30.32,10.0,North,9.2,-,N/A,,Clear,10,2014-01-05 23:15:00
5:35 PM,14.2,4.1,64,30.33,10.0,North,9.2,-,N/A,,Clear,10,2014-01-05 23:35:00
5:55 PM,12.7,3.7,67,30.34,10.0,NNE,10.4,-,N/A,,Clear,20,2014-01-05 23:55:00
6:15 PM,12.2,3.6,68,30.34,10.0,NNE,12.7,-,N/A,,Clear,20,2014-01-06 00:15:00
6:35 PM,10.9,3.4,72,30.36,10.0,NNE,10.4,-,N/A,,Clear,30,2014-01-06 00:35:00
6:55 PM,10.6,3.6,73,30.37,10.0,NNE,15.0,20.7,N/A,,Scattered Clouds,30,2014-01-06 00:55:00
7:15 PM,10.4,3.7,74,30.39,10.0,NNE,11.5,-,N/A,,Scattered Clouds,20,2014-01-06 01:15:00
7:35 PM,9.9,3.6,76,30.40,10.0,NNE,10.4,-,N/A,,Scattered Clouds,20,2014-01-06 01:35:00
7:55 PM,9.9,3.9,77,30.41,10.0,NNE,10.4,-,N/A,,Mostly Cloudy,20,2014-01-06 01:55:00
8:15 PM,10.0,4.3,78,30.42,10.0,NNE,10.4,-,N/A,,Overcast,20,2014-01-06 02:15:00
8:35 PM,10.0,4.6,79,30.43,10.0,NNE,8.1,-,N/A,,Overcast,20,2014-01-06 02:35:00
8:55 PM,10.2,5.0,79,30.44,10.0,North,10.4,-,N/A,,Overcast,10,2014-01-06 02:55:00
9:15 PM,11.3,6.1,80,30.45,10.0,North,8.1,-,N/A,,Overcast,10,2014-01-06 03:15:00
9:35 PM,11.8,6.8,80,30.45,4.0,NNE,10.4,-,N/A,Snow,Light Snow,20,2014-01-06 03:35:00
9:55 PM,11.3,6.3,80,30.45,10.0,NNE,11.5,-,N/A,,Overcast,20,2014-01-06 03:55:00
10:15 PM,10.0,5.5,82,30.46,10.0,NNE,8.1,-,N/A,,Scattered Clouds,20,2014-01-06 04:15:00
10:35 PM,8.2,4.3,84,30.46,10.0,North,6.9,-,N/A,,Scattered Clouds,360,2014-01-06 04:35:00
10:55 PM,7.3,3.7,85,30.46,10.0,North,6.9,-,N/A,,Mostly Cloudy,360,2014-01-06 04:55:00
11:15 PM,6.8,3.7,87,30.46,10.0,North,6.9,-,N/A,,Mostly Cloudy,10,2014-01-06 05:15:00
11:35 PM,6.8,3.4,86,30.47,10.0,NNW,8.1,-,N/A,,Overcast,340,2014-01-06 05:35:00
11:55 PM,8.4,5.2,87,30.48,10.0,NNW,5.8,-,N/A,,Overcast,340,2014-01-06 05:55:00